Tracking 18957 objects as of 22-Jan-2018
HD Live streaming from Space Station
objects crossing your sky now

FENGYUN 1C DEB

Track FENGYUN 1C DEB now!
10-day predictions


NORAD ID: 38159
Int'l Code: 1999-025ERG
Perigee: 861.5 km
Apogee: 938.1 km
Inclination: 99.3 °
Period: 102.8 minutes
Semi major axis: 7270 km
RCS: 0.003 m2 (small)
Launch date: May 10, 1999
Source: People's Republic of China (PRC)
Launch site: Taiyaun Space Center, China (TSC)

Note: This is SATELLITE DEBRIS
aabbcc
Your satellite tracking list
Your tracking list is empty




NASA's NSSDC Master Catalog

Two Line Element Set (TLE):
1 38159U 99025ERG 18015.16808371 -.00000111  00000-0 -43017-4 0  9994
2 38159  99.3278 144.5777 0052705 316.9516  42.7531 14.00332999426588
Source of the keplerian elements: AFSPC